GSAT 9

导读

GSAT-9,又名“南亚卫星”,是印度空间研究组织(ISRO)研制的通信卫星,于**2017年5月5日**在斯里赫里戈达岛萨蒂什·达万航天中心,由GSLV Mk II运载火箭成功发射。 卫星定位于地球静止轨道,质量约2230公斤,旨在为南亚区域合作联盟成员国提供卫星通信服务,覆盖南亚全境,提升区域灾害监测、通信互联能力,是印度推进空间领域区域合作的重要项目。

Basic Information
目录编号:
42695
目录名称:
GSAT 9
国际标识:
2017-024A
轨道中心:
EARTH
卫星名称:
GSAT 9
卫星全名:
--
卫星状态:
在轨 (已飞行3419 天)
发射日期:
2017-05-05 UTC
国别 :
印度 (IN)
星等 :
--
This satellite is enrolled in the Space Conjunction Data Service (SCDS) and the current flight risk assessment level is: No High Risk
Orbit Information
数据来源 国际轨道数据 AOE轨道数据
星历时间 2026-09-14T06:52:12+0800
6小时前
查看轨道信息
2026-09-13T01:00:00+0800
1天前
查看轨道信息
半长轴 42165.766km 42165.878km
偏心率 0.0002738 0.0002675
轨道倾角 0.027° 0.028°
近地点辐角 67.619° 50.357°
升交点赤经 113.298° 120.950°
平近点角 252.352° 172.693°
近地点 35776.084km 35776.461km
远地点 35799.174km 35799.021km
周期 1436.150分钟 1436.155分钟
每日圈数 1.002681 1.002677
Detailed Information
使用方式:
暂无
2D Orbit Map
3D Orbit Map
Orbit Altitude Analysis Chart
Orbit Inclination Analysis Chart
Orbit Comprehensive Analysis Chart
View Comprehensive Chart
Miss Distance Evolution Trend with All Objects Subscribe to Flight Safety Assessment
Collision Probability Evolution Trend with All Objects Subscribe to Flight Safety Assessment